Content
SEND FEEDBACK

Daily
Averages
Monthly
Summary
United States of America

HOONAH, ALASKA


Home > North America > United States > Alaska
Elevation: 210 feet     Latitude: 58 27N     Longitude: 135 53W

WEATHER
 
SELECT A DAY
Number of Records: 433,574;   Date Range: 1/1/95 - 10/24/14
 
SHARE

PRINT THIS DATA

[ ← Previous Day ]
WEATHER ALMANAC - JANUARY 23, 2013
[ Next Day → ]
[ °C ]   °F
Weather ElementAverageHighLow
Temperature37.8 °F41 °F (2:56 pm)33.8 °F (5:56 am)
Dewpoint33.2 °F35.6 °F (10:16 am)30.2 °F (3:16 am)
Humidity83.9 %93 % (2:36 am)76 % (2:56 pm)
Barometer29.59 in29.66 in (11:36 pm)29.56 in (5:36 am)
Wind Speed4.1 mph11.5 mph (5:36 pm)
Wind Gust16.1 mph (8:36 pm)
Weather ElementAverage
Visibility8 mi
Wind DirectionENE (76.6 °)

Weather ElementTotal
Precipitation---
Heating Degree Days27.6 (Base 65)
Averaged from 71 records on January 23, 2013
WEATHER CONDITIONS BREAKOUT
WIND DIRECTION BREAKOUT
WEATHER BY HOUR - JANUARY 23, 2013
[ °C ]   °F
Local TimeTemperatureDewpointHumidityBarometerVisibilityWind DirectionWind SpeedGust SpeedPrecipitationEventsConditions
12:36 AM37.4 °F33.8 °F87 %29.60 in10.0 miNNW (330°)3.5 mphOvercast
12:56 AM37.4 °F33.8 °F87 %29.60 in10.0 miWNW (300°)3.5 mphOvercast
1:16 AM37.4 °F33.8 °F87 %29.60 in10.0 miCalmOvercast
1:36 AM37.4 °F33.8 °F87 %29.59 in10.0 miCalmOvercast
1:56 AM37.4 °F33.8 °F87 %29.59 in9.0 miNorth (10°)3.5 mphOvercast
2:16 AM37.4 °F33.8 °F87 %29.59 in3.0 miCalmOvercast
2:36 AM35.6 °F33.8 °F93 %29.58 in1.0 miCalmOvercast
2:56 AM35.6 °F32.0 °F87 %29.58 in0.5 miCalmOvercast
3:16 AM35.6 °F30.2 °F81 %29.58 in0.8 miEast (90°)3.5 mphOvercast
3:36 AM35.6 °F32.0 °F87 %29.58 in0.8 miCalmOvercast
3:56 AM35.6 °F33.8 °F93 %29.58 in0.5 miCalmOvercast
4:16 AM35.6 °F32.0 °F87 %29.57 in0.5 miCalmOvercast
4:36 AM35.6 °F32.0 °F87 %29.57 in0.5 miCalmOvercast
4:56 AM35.6 °F32.0 °F87 %29.57 in1.0 miCalmOvercast
5:16 AM35.6 °F32.0 °F87 %29.57 in1.5 miCalmOvercast
5:36 AM35.6 °F30.2 °F81 %29.56 in1.5 miCalmOvercast
5:56 AM33.8 °F30.2 °F87 %29.56 in1.2 miCalmOvercast
6:16 AM33.8 °F30.2 °F87 %29.56 in1.2 miCalmOvercast
6:36 AM33.8 °F30.2 °F87 %29.57 in2.0 miCalmOvercast
6:56 AM33.8 °F30.2 °F87 %29.57 in1.8 miCalmOvercast
7:16 AM33.8 °F30.2 °F87 %29.57 in7.0 miCalmOvercast
7:36 AM33.8 °F30.2 °F87 %29.57 in7.0 miCalmOvercast
7:56 AM33.8 °F30.2 °F87 %29.58 in10.0 miCalmOvercast
8:16 AM33.8 °F30.2 °F87 %29.57 in10.0 miNE (50°)3.5 mphOvercast
8:36 AM33.8 °F30.2 °F87 %29.58 in10.0 miCalmOvercast
8:56 AM33.8 °F30.2 °F87 %29.58 in9.0 miCalmMostly Cloudy
9:16 AM33.8 °F30.2 °F87 %29.58 in10.0 miCalmScattered Clouds
9:36 AM35.6 °F32.0 °F87 %29.59 in10.0 miCalmMostly Cloudy
9:56 AM35.6 °F33.8 °F93 %29.59 in10.0 miCalmOvercast
10:16 AM37.4 °F35.6 °F93 %29.59 in10.0 miCalmOvercast
10:36 AM39.2 °F35.6 °F87 %29.60 in10.0 miSW (230°)3.5 mphOvercast
10:56 AM37.4 °F35.6 °F93 %29.59 in10.0 miNE (50°)3.5 mphOvercast
11:16 AM39.2 °F35.6 °F87 %29.59 in10.0 miCalmOvercast
11:36 AM39.2 °F35.6 °F87 %29.59 in10.0 miCalmOvercast
11:56 AM39.2 °F35.6 °F87 %29.59 in10.0 miCalmOvercast
12:16 PM39.2 °F35.6 °F87 %29.58 in10.0 miCalmOvercast
12:36 PM39.2 °F35.6 °F87 %29.58 in10.0 miCalmOvercast
12:56 PM39.2 °F35.6 °F87 %29.58 in10.0 miCalmOvercast
1:16 PM39.2 °F35.6 °F87 %29.57 in10.0 miSSE (150°)6.9 mphOvercast
1:36 PM39.2 °F35.6 °F87 %29.57 in10.0 miSSE (150°)6.9 mphOvercast
1:56 PM39.2 °F33.8 °F81 %29.57 in10.0 miSSE (150°)6.9 mphOvercast
2:16 PM39.2 °F33.8 °F81 %29.56 in10.0 miSE (140°)5.8 mphOvercast
2:36 PM39.2 °F33.8 °F81 %29.56 in10.0 miSE (130°)8.1 mphOvercast
2:56 PM41.0 °F33.8 °F76 %29.56 in10.0 miSE (140°)6.9 mphOvercast
3:16 PM39.2 °F33.8 °F81 %29.56 in10.0 miCalmOvercast
3:36 PM39.2 °F33.8 °F81 %29.56 in10.0 miCalmOvercast
3:56 PM41.0 °F33.8 °F76 %29.56 in10.0 miSSE (150°)5.8 mphOvercast
4:16 PM39.2 °F33.8 °F81 %29.56 in10.0 miSE (140°)6.9 mphOvercast
4:36 PM41.0 °F33.8 °F76 %29.56 in10.0 miSE (140°)6.9 mphOvercast
4:56 PM39.2 °F33.8 °F81 %29.56 in10.0 miSE (140°)6.9 mphOvercast
5:16 PM41.0 °F33.8 °F76 %29.56 in10.0 miSE (140°)5.8 mphOvercast
5:36 PM41.0 °F33.8 °F76 %29.56 in10.0 miSE (140°)11.5 mphOvercast
5:56 PM41.0 °F33.8 °F76 %29.56 in10.0 miSSE (150°)8.1 mphOvercast
6:16 PM41.0 °F33.8 °F76 %29.57 in10.0 miSE (140°)6.9 mphOvercast
6:36 PM41.0 °F33.8 °F76 %29.58 in10.0 miSE (140°)8.1 mphOvercast
6:56 PM41.0 °F33.8 °F76 %29.58 in10.0 miSSE (150°)8.1 mphOvercast
7:16 PM41.0 °F33.8 °F76 %29.58 in10.0 miSE (140°)10.4 mphOvercast
7:36 PM39.2 °F33.8 °F81 %29.59 in10.0 miSE (130°)9.2 mphOvercast
7:56 PM39.2 °F33.8 °F81 %29.60 in10.0 miSE (140°)8.1 mphOvercast
8:16 PM39.2 °F33.8 °F81 %29.60 in10.0 miSE (130°)8.1 mphOvercast
8:36 PM39.2 °F33.8 °F81 %29.61 in10.0 miSE (140°)11.5 mph16.1 mphOvercast
8:56 PM39.2 °F33.8 °F81 %29.61 in10.0 miSE (130°)10.4 mphOvercast
9:16 PM39.2 °F33.8 °F81 %29.62 in10.0 miSE (140°)8.1 mphOvercast
9:36 PM39.2 °F33.8 °F81 %29.62 in10.0 miSE (140°)10.4 mphOvercast
9:56 PM39.2 °F33.8 °F81 %29.63 in10.0 miSSE (150°)11.5 mphOvercast
10:16 PM39.2 °F33.8 °F81 %29.63 in10.0 miSE (140°)10.4 mphOvercast
10:36 PM39.2 °F33.8 °F81 %29.64 in10.0 miSE (140°)10.4 mphOvercast
10:56 PM39.2 °F33.8 °F81 %29.64 in10.0 miSE (140°)9.2 mphOvercast
11:16 PM39.2 °F33.8 °F81 %29.65 in10.0 miSE (140°)10.4 mphOvercast
11:36 PM39.2 °F33.8 °F81 %29.66 in10.0 miSE (140°)10.4 mph16.1 mphOvercast
11:56 PM39.2 °F33.8 °F81 %29.66 in10.0 miSSE (150°)8.1 mphOvercast
Hourly data recorded from PAGS, located miles away from Hoonah, Alaska







STORIES FROM OUR PARTNERS